發表時間 文章標題 人氣 留言
2012-01-04 30年絕代佳人劇照 O-S (11) (0)
2012-01-04 30年絕代佳人劇照 M-N (8) (0)
2012-01-04 30年絕代佳人劇照 F-L (14) (0)
2012-01-04 30年絕代佳人劇照 B-C (3) (0)
2012-01-04 30年絕代佳人劇照 A- (6) (0)
2012-01-04 30.40年絕代佳人 Sally Eilers 薩利.艾勒斯 (1908 - 1978 美國演員)280 (2) (0)
2012-01-04 30.40年絕代佳人 Vilma Banky 薇爾瑪.班姬 (1898 - 1982 匈牙利裔美國演員)279 (10) (0)
2012-01-04 30.40年絕代佳人 Shirley Temple 秀蘭.登波兒 (1928 美國演員、歌手、舞者)278 (21) (0)
2012-01-04 30.40年絕代佳人 Shelley Winters 莎麗.溫德絲 (1920 - 2006 美國演員)277 (14) (0)
2012-01-04 30.40年絕代佳人 Ruth Chatterton 露絲.查特頓 (1892 - 1961 法國裔美國演員)276 (3) (0)
2012-01-04 30.40年絕代佳人 Rhonda Fleming 朗黛.佛萊敏 (1923 美國演員)275 (4) (0)
2012-01-04 30.40年絕代佳人 Pola Negri 寶拉.奈格莉 (1894 - 1987 猶太裔波蘭演員)274 (14) (0)
2012-01-04 30.40年絕代佳人 Piper Laurie 琵琶.蘿麗 (1932 美國演員、舞者)273 (39) (0)
2012-01-04 30.40年絕代佳人 Mitzi Gaynor 蜜茲.蓋諾 (1931 美國演員、舞者)272 (14) (0)
2012-01-04 30.40年絕代佳人 Ella Raines 艾拉.雷恩斯 (1920 - 1988 美國演員)271 (18) (0)
2012-01-03 30、40年代好萊塢女演員一覽 03 (229-276) (70) (0)
2012-01-03 30.40年絕代佳人 Cleo Moore 克萊奧.摩爾 (1924 - 1973 美國演員)270 (10) (0)
2012-01-03 30.40年絕代佳人 Miriam Hopkins 米麗安.霍普金絲 (1902 - 1972 美國演員)269 (12) (0)
2012-01-03 30.40年絕代佳人 Michele Morgan 蜜雪兒.摩根 (1920 法國演員)268 (37) (0)
2012-01-03 30.40年絕代佳人 Mary Pickford 瑪麗.畢克馥 (1892 - 1979 加拿大演員)267 (146) (1)
2012-01-03 30.40年絕代佳人 Mary Martin 瑪麗.馬丁 (1913 - 1990 美國演員、歌手)266 (248) (0)
2012-01-03 30.40年絕代佳人 Mary Carlisle 瑪麗.克蕾兒 (1912 美國演員)265 (14) (0)
2012-01-03 30.40年絕代佳人 Mary Brian 瑪麗.布萊恩 (1906 - 2002 美國演員)264 (12) (0)
2012-01-03 30.40年絕代佳人 Maria Schell 瑪麗亞.雪兒 (1926 - 2005 奧地利演員)263 (12) (0)
2012-01-03 30.40年絕代佳人 Martine Carol 馬汀娜.卡羅爾 (1920 - 1967 法國演員)262 (12) (0)
2012-01-03 30.40年絕代佳人 Marilyn Maxwell 瑪麗蓮.麥絲威兒 (1921 - 1972 美國演員)261 (11) (0)
2012-01-03 30.40年絕代佳人 Margaret Sullavan 瑪格麗特.蘇利文 (1909 - 1960 美國演員)260 (61) (0)
2012-01-03 30.40年絕代佳人 Margaret Lindsay 瑪格麗特.麗莎 (1910 - 1981 美國演員)259 (5) (0)
2012-01-03 30.40年絕代佳人 Margaret Livingstone 瑪格麗特.李文史頓 (1900 - 1985 美國演員)258 (9) (0)
2012-01-03 30.40年絕代佳人 Ruby Keeler 露比.基勒 (1910 - 1993 加拿大裔美國演員)257 (9) (0)
2012-01-03 30.40年絕代佳人 Vera Ralston 維拉.羅爾斯頓 (1919 - 2003 捷克裔滑冰運動員、美國演員)256 (10) (0)
2012-01-02 30.40年絕代佳人 Vera Zorina 維拉.佐麗娜 (1917 - 2003 挪威芭蕾舞者、演員)255 (14) (0)
2012-01-02 30.40年絕代佳人 Mamie Van Doren 瑪咪.范.多倫 (1931 美國演員)254 (17) (0)
2012-01-02 30.40年絕代佳人 Valerie Hobson 瓦萊麗.霍布森 (1917 - 1998 英國演員)253 (8) (0)
2012-01-02 30.40年絕代佳人 Maureen O'Sullivan 莫琳.奧沙利文 (1911 - 1998 愛爾蘭裔美國演員)252 (13) (0)
2012-01-02 30.40年絕代佳人 Mae Clarke 梅.克拉克 (1910 - 1992 美國演員)251 (3) (0)
2012-01-02 30.40年絕代佳人 Lucille Bremer 露西.巴摩兒 (1917 - 1996 美國演員、舞者)250 (1) (0)
2012-01-02 30.40年絕代佳人 Jane Greer 簡.格里爾 (1924 - 2001 美國演員)249 (9) (0)
2012-01-02 30.40年絕代佳人 Lizabeth Scott 麗莎白.絲考特 (1922 美國演員、歌手)248 (10) (0)
2012-01-02 30.40年絕代佳人 Allison Hayes 艾莉森.海耶斯 (1930 - 1977 美國演員)247 (6) (0)
2012-01-02 30.40年絕代佳人 Rita Moreno 麗泰.莫蕾諾 (1931 波多黎各歌手、舞者、演員)246 (12) (0)
2012-01-01 30.40年絕代佳人 Jayne Mansfield 珍.曼絲菲 (1933 - 1967 美國演員)245 (252) (0)
2012-01-01 30.40年絕代佳人 June Haver 瓊.哈葳 (1926 - 2005 美國演員)244 (5) (0)
2012-01-01 30.40年絕代佳人 Edie Adams 伊迪.亞當斯 (1927 - 2008 美國歌手、演員)243 (8) (0)
2012-01-01 30.40年絕代佳人 Vera Ellen 維拉.艾倫 (1921 - 1981 美國演員)242 (33) (0)
2012-01-01 30.40年絕代佳人 Rosalind Russell 羅莎琳.羅素 (1907 - 1976 美國舞者、演員)241 (13) (0)
2012-01-01 30.40年絕代佳人 Kay Francis 凱.法蘭西絲 (1899 - 1968 美國演員)240 (13) (0)
2012-01-01 30.40年絕代佳人 Judith Anderson 茱蒂絲.安德蓀 (1897 - 1992 澳大利亞裔美國演員)239 (4) (0)
2012-01-01 30.40年絕代佳人 Joanne Woodward 瓊妮.伍華 (1930 美國演員)238 (38) (0)
2012-01-01 30.40年絕代佳人 Joanne Dru 瓊妮.德露 (1922 - 1996 美國演員)237 (19) (0)